Weather Roundup
Issued by NWS Chicago, IL

Home | Current Version | Previous Version | Text Only | Print | Product List | Glossary Off
Versions: 1 2 3 4 5 6 7 8 9 10 11 12 13 14 15 16 17 18 19 20 21 22 23 24 25 26 27 28 29 30 31 32 33 34 35 36 37 38 39 40 41 42 43 44 45 46 47 48 49 50

591
NZUS59 KLOT 141803
HRRLOT

CHICAGO AREA WEATHER ROUNDUP
NATIONAL WEATHER SERVICE CHICAGO/ROMEOVILLE IL
1200 PM CST SUN FEB 14 2016

NOTE: "FAIR" INDICATES FEW OR NO CLOUDS BELOW 12,000 FEET WITH NO
SIGNIFICANT WEATHER AND/OR OBSTRUCTIONS TO VISIBILITY.

* THESE STATIONS ARE NOT UNDER NWS QUALITY CONTROL. THEY ALSO MAY NOT
  REPORT WEATHER SUCH AS PRECIPITATION OR FOG.

ILZ005-006-012>014-019>023-141900-
NORTHEAST ILLINOIS

CITY           SKY/WX    TMP DP  RH WIND       PRES   REMARKS
OHARE          FLURRIES  17   3  54 SE13      30.23F WCI   4
6HR MIN TEMP:  13; 6HR MAX TEMP:  17; 6HR PCP: TRACE;

MIDWAY         CLOUDY    18   3  52 SE15      30.25F WCI   4
6HR MIN TEMP:  15; 6HR MAX TEMP:  19;

AURORA         LGT SNOW  17  12  80 SE15G23   30.22F VSB 3/4 WCI   2
6HR MIN TEMP:  14; 6HR MAX TEMP:  18; 6HR PCP: TRACE;

WAUKEGAN       CLOUDY    17   7  64 SE15      30.22F WCI   2
6HR MIN TEMP:   9; 6HR MAX TEMP:  17;

DUPAGE AIRPORT HVY SNOW  15   8  73 SE13      30.21F VSB 1/4 WCI   1
6HR MIN TEMP:  13; 6HR MAX TEMP:  16; 6HR PCP: TRACE;

WHEELING       CLOUDY    17   4  56 SE13      30.25F WCI   4
6HR MIN TEMP:  13; 6HR MAX TEMP:  17; 6HR PCP: TRACE;

$$

WIZ051-052-058>065-066-070>072-141900-
SOUTHEAST WISCONSIN

CITY           SKY/WX    TMP DP  RH WIND       PRES   REMARKS
MILWAUKEE      CLOUDY    19  10  68 SE15      30.23F WCI   5
6HR MIN TEMP:   8; 6HR MAX TEMP:  19; 6HR PCP: TRACE;

KENOSHA*       CLOUDY    18   7  62 SE17G23   30.22F WCI   3
RACINE*        CLOUDY    20   9  62 S14G23    30.25F WCI   7
BURLINGTON     LGT SNOW  15   6  67 SE12      30.21F WCI   2
WAUKESHA       CLOUDY    16   9  73 SE12G23   30.22F WCI   3
$$

INZ001>003-010>013-019-020-141900-
NORTHWEST INDIANA

CITY           SKY/WX    TMP DP  RH WIND       PRES   REMARKS
GARY*          CLOUDY    19   1  45 SE16      30.26F WCI   5
MICHIGAN CITY* NOT AVBL
RENSSELAER*    NOT AVBL
VALPARAISO     CLOUDY    17   5  59 SE15G21   30.25F WCI   2
$$

LMZ740>746-141900-
SOUTHERN LAKE MICHIGAN

STATION/POSITION TIME  SKY/WX   TEMP WIND        PRES    VSBY
                                AIR  DIR/SP/G
                 (UTC)          (F)  (DEG/KT/KT) (MB)    (MI)
HARRISON CRIB    1700            17  150/ 17/ 21   N/A
BURNHAM HARBOR   1800            18  150/ 12/ 17   N/A
CALUMET HARBOR   1700            16  130/ 13/ 18 1024.4F
BURNS HARBOR     1700            16  160/ 10/ 15 1026.1F
MICHIGAN CITY    1700            14  120/ 12/ 14   N/A
$$

ABBREVIATIONS USED IN REMARKS
   TC - TEMPERATURE IN CELSIUS
  WCI - WIND CHILL INDEX
   HX - HEAT INDEX
  VSB - VISIBILITY
$$




USA.gov is the U.S. government's official web portal to all federal, state and local government web resources and services.